timestamp,wind_dir_avg,wind_spd_max_dir,wind_spd_avg,wind_spd_gust,battery_voltage,lat,long
2018-12-17 00:00:00+00:00,357.0,1.0,7.8,8.96,,47.59359,-54.27349
2018-12-17 00:10:00+00:00,1.0,359.0,6.48,7.43,,47.59359,-54.27349
2018-12-17 00:20:00+00:00,3.0,4.0,6.95,7.88,,47.59359,-54.27349
2018-12-17 00:30:00+00:00,352.0,350.0,6.42,7.17,,47.59359,-54.27349
2018-12-17 00:40:00+00:00,352.0,351.0,6.16,7.28,,47.59359,-54.27349
2018-12-17 00:50:00+00:00,327.0,321.0,3.52,4.24,,47.59359,-54.27349
2018-12-17 01:00:00+00:00,338.0,339.0,5.16,6.31,,47.59359,-54.27349
2018-12-17 01:10:00+00:00,1.0,359.0,6.7,7.35,,47.59359,-54.27349
2018-12-17 01:20:00+00:00,3.0,359.0,6.65,8.23,,47.59359,-54.27349
2018-12-17 01:30:00+00:00,6.0,4.0,7.61,8.79,,47.59359,-54.27349
2018-12-17 01:40:00+00:00,6.0,7.0,7.63,8.53,,47.59359,-54.27349
2018-12-17 01:50:00+00:00,5.0,7.0,5.68,6.5,,47.59359,-54.27349
2018-12-17 02:00:00+00:00,21.0,23.0,5.26,6.23,,47.59359,-54.27349
2018-12-17 02:10:00+00:00,25.0,21.0,5.12,5.79,,47.59359,-54.27349
2018-12-17 02:20:00+00:00,24.0,30.0,4.44,5.5,,47.59359,-54.27349
2018-12-17 02:30:00+00:00,9.0,7.0,4.39,4.96,,47.59359,-54.27349
2018-12-17 02:40:00+00:00,17.0,16.0,6.66,7.65,,47.59359,-54.27349
2018-12-17 02:50:00+00:00,5.0,7.0,5.18,5.55,,47.59359,-54.27349
2018-12-17 03:00:00+00:00,0.0,359.0,4.52,5.25,,47.59359,-54.27349
2018-12-17 03:10:00+00:00,0.0,0.0,4.79,5.33,,47.59359,-54.27349
2018-12-17 03:20:00+00:00,357.0,4.0,4.04,5.24,,47.59359,-54.27349
2018-12-17 03:30:00+00:00,0.0,357.0,3.74,4.74,,47.59359,-54.27349
2018-12-17 03:40:00+00:00,332.0,333.0,4.58,5.6,,47.59359,-54.27349
2018-12-17 03:50:00+00:00,309.0,314.0,4.38,5.71,,47.59359,-54.27349
2018-12-17 04:00:00+00:00,302.0,303.0,4.42,5.18,,47.59359,-54.27349
2018-12-17 04:10:00+00:00,296.0,299.0,5.22,5.96,,47.59359,-54.27349
2018-12-17 04:20:00+00:00,306.0,317.0,4.43,5.4,,47.59359,-54.27349
2018-12-17 04:30:00+00:00,323.0,331.0,4.7,5.2,,47.59359,-54.27349
2018-12-17 04:40:00+00:00,327.0,331.0,6.15,6.91,,47.59359,-54.27349
2018-12-17 04:50:00+00:00,334.0,341.0,4.27,4.95,,47.59359,-54.27349
2018-12-17 05:00:00+00:00,325.0,328.0,5.01,5.57,,47.59359,-54.27349
2018-12-17 05:10:00+00:00,327.0,326.0,4.73,5.58,,47.59359,-54.27349
2018-12-17 05:20:00+00:00,334.0,334.0,5.17,6.38,,47.59359,-54.27349
2018-12-17 05:30:00+00:00,330.0,336.0,4.9,5.63,,47.59359,-54.27349
2018-12-17 05:40:00+00:00,323.0,323.0,4.94,5.39,,47.59359,-54.27349
2018-12-17 05:50:00+00:00,325.0,326.0,4.41,4.87,,47.59359,-54.27349
2018-12-17 06:00:00+00:00,345.0,352.0,4.41,5.36,,47.59359,-54.27349
2018-12-17 06:10:00+00:00,337.0,333.0,3.59,4.15,,47.59359,-54.27349
2018-12-17 06:20:00+00:00,320.0,325.0,3.89,4.31,,47.59359,-54.27349
2018-12-17 06:30:00+00:00,319.0,321.0,4.05,4.55,,47.59359,-54.27349
2018-12-17 06:40:00+00:00,338.0,346.0,4.75,5.51,,47.59359,-54.27349
2018-12-17 06:50:00+00:00,349.0,349.0,4.81,5.7,,47.59359,-54.27349
2018-12-17 07:00:00+00:00,344.0,338.0,5.65,6.66,,47.59359,-54.27349
2018-12-17 07:10:00+00:00,343.0,349.0,6.47,6.99,,47.59359,-54.27349
2018-12-17 07:20:00+00:00,342.0,343.0,5.15,6.07,,47.59359,-54.27349
2018-12-17 07:30:00+00:00,359.0,0.0,5.08,5.87,,47.59359,-54.27349
2018-12-17 07:40:00+00:00,0.0,5.0,5.12,5.45,,47.59359,-54.27349
2018-12-17 07:50:00+00:00,359.0,0.0,4.82,5.25,,47.59359,-54.27349
2018-12-17 08:00:00+00:00,355.0,356.0,5.23,6.09,,47.59359,-54.27349
2018-12-17 08:10:00+00:00,1.0,2.0,6.19,6.67,,47.59359,-54.27349
2018-12-17 08:20:00+00:00,359.0,0.0,5.85,6.7,,47.59359,-54.27349
2018-12-17 08:30:00+00:00,1.0,359.0,4.59,5.11,,47.59359,-54.27349
2018-12-17 08:40:00+00:00,357.0,348.0,3.45,4.12,,47.59359,-54.27349
2018-12-17 08:50:00+00:00,338.0,336.0,2.9,3.45,,47.59359,-54.27349
2018-12-17 09:00:00+00:00,5.0,5.0,3.85,4.45,,47.59359,-54.27349
2018-12-17 09:10:00+00:00,359.0,355.0,4.64,5.08,,47.59359,-54.27349
2018-12-17 09:20:00+00:00,356.0,359.0,4.57,5.08,,47.59359,-54.27349
2018-12-17 09:30:00+00:00,351.0,345.0,3.12,3.83,,47.59359,-54.27349
2018-12-17 09:40:00+00:00,345.0,356.0,3.66,4.46,,47.59359,-54.27349
2018-12-17 09:50:00+00:00,13.0,7.0,2.78,3.31,,47.59359,-54.27349
2018-12-17 10:00:00+00:00,36.0,37.0,3.27,3.89,,47.59359,-54.27349
2018-12-17 10:10:00+00:00,28.0,29.0,2.94,3.76,,47.59359,-54.27349
2018-12-17 10:20:00+00:00,9.0,8.0,2.98,3.7,,47.59359,-54.27349
2018-12-17 10:30:00+00:00,9.0,9.0,2.94,3.52,,47.59359,-54.27349
2018-12-17 10:40:00+00:00,20.0,19.0,1.97,2.38,,47.59359,-54.27349
2018-12-17 10:50:00+00:00,6.0,18.0,1.11,1.54,,47.59359,-54.27349
2018-12-17 11:00:00+00:00,331.0,346.0,1.56,2.21,,47.59359,-54.27349
2018-12-17 11:10:00+00:00,4.0,353.0,2.12,2.89,,47.59359,-54.27349
2018-12-17 11:20:00+00:00,325.0,280.0,0.44,1.08,,47.59359,-54.27349
2018-12-17 11:30:00+00:00,43.0,35.0,0.26,0.42,,47.59359,-54.27349
2018-12-17 11:40:00+00:00,273.0,248.0,0.61,1.0,,47.59359,-54.27349
2018-12-17 11:50:00+00:00,358.0,7.0,0.35,0.78,,47.59359,-54.27349
2018-12-17 12:00:00+00:00,184.0,212.0,0.98,1.57,,47.59359,-54.27349
2018-12-17 12:10:00+00:00,189.0,181.0,1.66,2.08,,47.59359,-54.27349
2018-12-17 12:20:00+00:00,189.0,188.0,1.56,2.03,,47.59359,-54.27349
2018-12-17 12:30:00+00:00,198.0,197.0,2.14,2.69,,47.59359,-54.27349
2018-12-17 12:40:00+00:00,200.0,199.0,2.62,3.17,,47.59359,-54.27349
2018-12-17 12:50:00+00:00,203.0,199.0,2.19,2.83,,47.59359,-54.27349
2018-12-17 13:00:00+00:00,188.0,188.0,2.62,3.05,,47.59359,-54.27349
2018-12-17 13:10:00+00:00,198.0,197.0,3.09,3.86,,47.59359,-54.27349
2018-12-17 13:20:00+00:00,201.0,199.0,3.57,4.25,,47.59359,-54.27349
2018-12-17 13:30:00+00:00,200.0,205.0,4.76,5.38,,47.59359,-54.27349
2018-12-17 13:40:00+00:00,206.0,201.0,4.05,4.72,,47.59359,-54.27349
2018-12-17 13:50:00+00:00,194.0,201.0,4.55,5.42,,47.59359,-54.27349
2018-12-17 14:00:00+00:00,193.0,188.0,5.22,6.3,,47.59359,-54.27349
2018-12-17 14:10:00+00:00,186.0,193.0,4.97,5.88,,47.59359,-54.27349
2018-12-17 14:20:00+00:00,191.0,188.0,6.1,7.0,,47.59359,-54.27349
2018-12-17 14:30:00+00:00,199.0,193.0,5.49,6.42,,47.59359,-54.27349
2018-12-17 14:40:00+00:00,204.0,206.0,6.02,6.86,,47.59359,-54.27349
2018-12-17 14:50:00+00:00,211.0,206.0,7.9,9.39,,47.59359,-54.27349
2018-12-17 15:00:00+00:00,199.0,196.0,5.47,6.19,,47.59359,-54.27349
2018-12-17 15:10:00+00:00,209.0,208.0,4.84,5.41,,47.59359,-54.27349
2018-12-17 15:20:00+00:00,219.0,215.0,3.75,4.34,,47.59359,-54.27349
2018-12-17 15:30:00+00:00,199.0,200.0,6.03,7.56,,47.59359,-54.27349
2018-12-17 15:40:00+00:00,213.0,215.0,5.34,6.72,,47.59359,-54.27349
2018-12-17 15:50:00+00:00,186.0,184.0,4.53,5.74,,47.59359,-54.27349
2018-12-17 16:00:00+00:00,213.0,206.0,4.4,5.83,,47.59359,-54.27349
2018-12-17 16:10:00+00:00,180.0,181.0,4.66,5.38,,47.59359,-54.27349
2018-12-17 16:20:00+00:00,198.0,203.0,5.15,5.83,,47.59359,-54.27349
2018-12-17 16:30:00+00:00,185.0,185.0,4.11,5.01,,47.59359,-54.27349
2018-12-17 16:40:00+00:00,203.0,200.0,4.84,5.38,,47.59359,-54.27349
2018-12-17 16:50:00+00:00,189.0,184.0,4.01,4.97,,47.59359,-54.27349
2018-12-17 17:00:00+00:00,192.0,190.0,5.61,6.85,,47.59359,-54.27349
2018-12-17 17:10:00+00:00,182.0,183.0,5.93,7.0,,47.59359,-54.27349
2018-12-17 17:20:00+00:00,194.0,192.0,4.48,5.22,,47.59359,-54.27349
2018-12-17 17:30:00+00:00,208.0,210.0,5.22,6.55,,47.59359,-54.27349
2018-12-17 17:40:00+00:00,206.0,200.0,6.47,7.52,,47.59359,-54.27349
2018-12-17 17:50:00+00:00,179.0,179.0,6.16,7.27,,47.59359,-54.27349
2018-12-17 18:00:00+00:00,164.0,165.0,5.52,6.15,,47.59359,-54.27349
2018-12-17 18:10:00+00:00,169.0,159.0,5.12,5.82,,47.59359,-54.27349
2018-12-17 18:20:00+00:00,169.0,176.0,4.85,5.42,,47.59359,-54.27349
2018-12-17 18:30:00+00:00,179.0,180.0,4.85,5.22,,47.59359,-54.27349
2018-12-17 18:40:00+00:00,162.0,154.0,4.89,5.68,,47.59359,-54.27349
2018-12-17 18:50:00+00:00,172.0,164.0,4.46,5.39,,47.59359,-54.27349
2018-12-17 19:00:00+00:00,174.0,183.0,4.7,5.45,,47.59359,-54.27349
2018-12-17 19:10:00+00:00,185.0,191.0,4.0,4.65,,47.59359,-54.27349
2018-12-17 19:20:00+00:00,165.0,165.0,5.84,6.88,,47.59359,-54.27349
2018-12-17 19:30:00+00:00,172.0,170.0,6.81,7.75,,47.59359,-54.27349
2018-12-17 19:40:00+00:00,178.0,179.0,6.79,7.29,,47.59359,-54.27349
2018-12-17 19:50:00+00:00,177.0,181.0,6.31,6.98,,47.59359,-54.27349
2018-12-17 20:00:00+00:00,170.0,171.0,5.55,6.77,,47.59359,-54.27349
2018-12-17 20:10:00+00:00,169.0,179.0,6.06,6.94,,47.59359,-54.27349
2018-12-17 20:20:00+00:00,181.0,180.0,6.13,6.65,,47.59359,-54.27349
2018-12-17 20:30:00+00:00,173.0,166.0,5.74,6.62,,47.59359,-54.27349
2018-12-17 20:40:00+00:00,182.0,179.0,5.74,6.47,,47.59359,-54.27349
2018-12-17 20:50:00+00:00,169.0,168.0,5.15,5.64,,47.59359,-54.27349
2018-12-17 21:00:00+00:00,164.0,160.0,5.36,7.02,,47.59359,-54.27349
2018-12-17 21:10:00+00:00,155.0,158.0,4.94,5.77,,47.59359,-54.27349
2018-12-17 21:20:00+00:00,149.0,153.0,4.95,5.82,,47.59359,-54.27349
2018-12-17 21:30:00+00:00,150.0,159.0,3.98,4.75,,47.59359,-54.27349
2018-12-17 21:40:00+00:00,142.0,149.0,4.94,6.06,,47.59359,-54.27349
2018-12-17 21:50:00+00:00,148.0,153.0,5.41,6.01,,47.59359,-54.27349
2018-12-17 22:00:00+00:00,148.0,146.0,5.02,6.11,,47.59359,-54.27349
2018-12-17 22:10:00+00:00,134.0,137.0,6.15,6.9,,47.59359,-54.27349
2018-12-17 22:20:00+00:00,151.0,152.0,4.94,5.8,,47.59359,-54.27349
2018-12-17 22:30:00+00:00,147.0,148.0,6.58,7.47,,47.59359,-54.27349
2018-12-17 22:40:00+00:00,156.0,157.0,5.89,7.05,,47.59359,-54.27349
2018-12-17 22:50:00+00:00,149.0,140.0,6.92,8.68,,47.59359,-54.27349
2018-12-17 23:00:00+00:00,155.0,165.0,5.94,7.11,,47.59359,-54.27349
2018-12-17 23:10:00+00:00,155.0,156.0,5.85,7.37,,47.59359,-54.27349
2018-12-17 23:20:00+00:00,142.0,143.0,7.17,8.93,,47.59359,-54.27349
2018-12-17 23:30:00+00:00,139.0,133.0,7.14,8.25,,47.59359,-54.27349
2018-12-17 23:40:00+00:00,153.0,163.0,7.43,8.77,,47.59359,-54.27349
2018-12-17 23:50:00+00:00,143.0,153.0,5.78,6.84,,47.59359,-54.27349
